FW4785 Weather Reports


Display with metric or nautical units.
time (UTC)temp
F
wind
direction
speed
MPH
gust
MPH
rain 1hr
in
rain 24hr
in
rain mn
in
humidity
%
barometer
mb
20220624230627 92 169 8.0 16.0 0.00 0.00 0.00 64 1012.4
20220624230128 92 168 8.0 17.0 0.00 0.00 0.00 64 1012.4
20220624225628 93 153 9.0 17.0 0.00 0.00 0.00 63 1012.5
20220624225125 93 159 9.0 17.0 0.00 0.00 0.00 63 1012.5
20220624224624 93 146 9.0 17.0 0.00 0.00 0.00 63 1012.5
20220624224124 93 198 9.0 17.0 0.00 0.00 0.00 62 1012.5
20220624223624 94 147 8.0 16.0 0.00 0.00 0.00 62 1012.6
20220624223122 94 169 7.0 15.0 0.00 0.00 0.00 62 1012.6
20220624222622 94 160 8.0 18.0 0.00 0.00 0.00 61 1012.7
20220624222122 94 146 9.0 18.0 0.00 0.00 0.00 60 1012.7
20220624221622 95 189 8.0 15.0 0.00 0.00 0.00 59 1012.8
20220624221115 95 154 7.0 15.0 0.00 0.00 0.00 58 1012.7
20220624220610 95 0 8.0 16.0 0.00 0.00 0.00 58 1012.7
20220624220110 96 159 8.0 16.0 0.00 0.00 0.00 57 1012.7
20220624215610 96 144 7.0 14.0 0.00 0.00 0.00 57 1012.7
20220624215110 96 138 7.0 14.0 0.00 0.00 0.00 57 1012.7
20220624214609 96 157 8.0 15.0 0.00 0.00 0.00 56 1012.7
20220624214110 96 140 8.0 15.0 0.00 0.00 0.00 56 1012.8
20220624213610 96 174 7.0 15.0 0.00 0.00 0.00 57 1012.8
20220624213109 96 184 7.0 18.0 0.00 0.00 0.00 56 1012.8
20220624212611 96 157 7.0 18.0 0.00 0.00 0.00 57 1012.8
20220624212110 96 148 8.0 15.0 0.00 0.00 0.00 55 1012.8
20220624211610 96 207 8.0 15.0 0.00 0.00 0.00 55 1012.9
20220624211109 96 209 7.0 14.0 0.00 0.00 0.00 55 1012.9
20220624210610 97 161 6.0 14.0 0.00 0.00 0.00 54 1012.9
20220624210108 98 217 6.0 10.0 0.00 0.00 0.00 53 1012.9
20220624205607 98 149 6.0 12.0 0.00 0.00 0.00 54 1013.0
20220624205108 98 184 7.0 12.0 0.00 0.00 0.00 54 1013.0
20220624204608 98 200 7.0 14.0 0.00 0.00 0.00 54 1013.0
20220624204110 98 188 5.0 14.0 0.00 0.00 0.00 55 1013.1
20220624203607 97 202 4.0 11.0 0.00 0.00 0.00 56 1013.1
20220624203109 97 159 6.0 15.0 0.00 0.00 0.00 54 1013.2
20220624202605 97 203 8.0 15.0 0.00 0.00 0.00 56 1013.3
20220624202106 96 178 8.0 14.0 0.00 0.00 0.00 56 1013.3
20220624201606 97 217 8.0 14.0 0.00 0.00 0.00 56 1013.3
20220624201104 97 190 7.0 14.0 0.00 0.00 0.00 55 1013.4
20220624200603 97 225 7.0 14.0 0.00 0.00 0.00 56 1013.4
20220624200103 98 269 7.0 14.0 0.00 0.00 0.00 54 1013.4
20220624195602 98 195 7.0 16.0 0.00 0.00 0.00 55 1013.4
20220624195102 98 158 7.0 16.0 0.00 0.00 0.00 54 1013.5
20220624194601 98 202 6.0 13.0 0.00 0.00 0.00 53 1013.5
20220624194102 98 0 7.0 13.0 0.00 0.00 0.00 53 1013.5
20220624193601 98 179 7.0 16.0 0.00 0.00 0.00 52 1013.6
20220624193103 99 116 5.0 16.0 0.00 0.00 0.00 51 1013.5
20220624192602 99 0 5.0 12.0 0.00 0.00 0.00 51 1013.6
20220624192104 99 170 5.0 11.0 0.00 0.00 0.00 49 1013.7
20220624191601 98 221 5.0 11.0 0.00 0.00 0.00 48 1013.7
20220624191103 98 167 7.0 15.0 0.00 0.00 0.00 49 1013.8
20220624190602 98 190 6.0 15.0 0.00 0.00 0.00 50 1013.9
20220624190103 98 238 5.0 13.0 0.00 0.00 0.00 46 1013.9
20220624185601 98 181 4.0 12.0 0.00 0.00 0.00 47 1013.9
20220624185103 98 186 4.0 12.0 0.00 0.00 0.00 47 1014.0
20220624184601 98 128 6.0 14.0 0.00 0.00 0.00 47 1014.0
20220624184058 98 181 6.0 15.0 0.00 0.00 0.00 47 1014.2
20220624183551 97 0 6.0 15.0 0.00 0.00 0.00 47 1014.2
20220624183050 97 172 6.0 14.0 0.00 0.00 0.00 48 1014.2
20220624182550 97 134 6.0 11.0 0.00 0.00 0.00 48 1014.3
20220624182049 97 203 6.0 11.0 0.00 0.00 0.00 48 1014.3
20220624181547 96 150 6.0 11.0 0.00 0.00 0.00 50 1014.2
20220624181048 96 266 7.0 11.0 0.00 0.00 0.00 53 1014.2
20220624180547 96 205 7.0 14.0 0.00 0.00 0.00 53 1014.3
20220624180049 95 213 6.0 14.0 0.00 0.00 0.00 55 1014.3
20220624175546 96 231 5.0 15.0 0.00 0.00 0.00 54 1014.5
20220624175046 96 188 5.0 15.0 0.00 0.00 0.00 53 1014.6
20220624174543 96 263 5.0 10.0 0.00 0.00 0.00 54 1014.5
20220624174043 95 232 6.0 14.0 0.00 0.00 0.00 54 1014.6
20220624173544 95 188 6.0 14.0 0.00 0.00 0.00 54 1014.7
20220624173043 95 273 5.0 11.0 0.00 0.00 0.00 54 1014.7
20220624172543 95 246 5.0 10.0 0.00 0.00 0.00 55 1014.7
20220624172043 94 214 5.0 11.0 0.00 0.00 0.00 56 1014.8
20220624171539 94 148 6.0 12.0 0.00 0.00 0.00 55 1014.8
20220624171039 93 263 6.0 12.0 0.00 0.00 0.00 57 1014.9
20220624170537 93 218 5.0 10.0 0.00 0.00 0.00 58 1014.9
20220624170037 93 216 5.0 10.0 0.00 0.00 0.00 61 1014.9
20220624165537 93 251 4.0 10.0 0.00 0.00 0.00 61 1015.0
20220624165035 93 261 4.0 9.0 0.00 0.00 0.00 64 1014.9
20220624164531 92 282 5.0 9.0 0.00 0.00 0.00 62 1015.0
20220624164031 92 234 4.0 9.0 0.00 0.00 0.00 64 1015.0
20220624163531 91 223 5.0 10.0 0.00 0.00 0.00 64 1015.1
20220624163033 92 243 5.0 11.0 0.00 0.00 0.00 62 1015.1
20220624162529 92 232 5.0 11.0 0.00 0.00 0.00 63 1015.1
20220624162029 92 273 4.0 11.0 0.00 0.00 0.00 64 1015.2
20220624161530 92 209 4.0 11.0 0.00 0.00 0.00 65 1015.2
20220624161029 91 214 5.0 11.0 0.00 0.00 0.00 63 1015.2
20220624160529 91 252 5.0 11.0 0.00 0.00 0.00 64 1015.2
20220624160030 91 165 3.0 8.0 0.00 0.00 0.00 65 1015.2
20220624155531 90 257 4.0 11.0 0.00 0.00 0.00 67 1015.3
20220624155029 90 226 5.0 11.0 0.00 0.00 0.00 67 1015.2
20220624154529 90 176 4.0 7.0 0.00 0.00 0.00 65 1015.2
20220624154029 89 191 4.0 9.0 0.00 0.00 0.00 67 1015.3
20220624153529 89 222 3.0 9.0 0.00 0.00 0.00 68 1015.4
20220624153029 89 184 4.0 7.0 0.00 0.00 0.00 69 1015.3
20220624152529 89 214 5.0 10.0 0.00 0.00 0.00 69 1015.3
20220624152029 89 223 4.0 10.0 0.00 0.00 0.00 70 1015.3
20220624151530 89 239 3.0 7.0 0.00 0.00 0.00 72 1015.3
20220624151032 88 208 4.0 8.0 0.00 0.00 0.00 73 1015.3
20220624150530 87 175 4.0 8.0 0.00 0.00 0.00 73 1015.3
20220624150032 87 186 4.0 7.0 0.00 0.00 0.00 74 1015.4
20220624145529 86 199 4.0 8.0 0.00 0.00 0.00 75 1015.5
20220624145031 86 219 3.0 8.0 0.00 0.00 0.00 74 1015.5
20220624144528 86 283 3.0 7.0 0.00 0.00 0.00 75 1015.5
20220624144031 86 258 4.0 8.0 0.00 0.00 0.00 76 1015.5
20220624143529 85 267 4.0 8.0 0.00 0.00 0.00 76 1015.4
20220624143031 85 182 3.0 8.0 0.00 0.00 0.00 78 1015.5
20220624142528 85 267 3.0 7.0 0.00 0.00 0.00 78 1015.5
20220624142031 84 261 4.0 8.0 0.00 0.00 0.00 78 1015.5
20220624141529 84 253 4.0 8.0 0.00 0.00 0.00 79 1015.4
20220624141032 84 261 4.0 9.0 0.00 0.00 0.00 80 1015.3
20220624140528 83 260 4.0 9.0 0.00 0.00 0.00 81 1015.3
20220624140032 83 258 4.0 9.0 0.00 0.00 0.00 82 1015.2
20220624135528 83 234 3.0 7.0 0.00 0.00 0.00 83 1015.2
20220624135031 82 240 3.0 6.0 0.00 0.00 0.00 85 1015.1
20220624134529 82 219 2.0 4.0 0.00 0.00 0.00 86 1015.1
20220624134032 81 261 2.0 4.0 0.00 0.00 0.00 87 1015.1
20220624133529 81 262 2.0 4.0 0.00 0.00 0.00 88 1015.0
20220624133032 80 262 2.0 6.0 0.00 0.00 0.00 88 1015.0
20220624132528 80 265 2.0 6.0 0.00 0.00 0.00 89 1015.0
20220624132031 79 254 1.0 4.0 0.00 0.00 0.00 89 1014.9
20220624131529 79 254 1.0 4.0 0.00 0.00 0.00 89 1014.9
20220624131031 78 254 1.0 4.0 0.00 0.00 0.00 90 1014.9
20220624130528 78 201 1.0 3.0 0.00 0.00 0.00 89 1014.8
20220624130032 78 201 1.0 3.0 0.00 0.00 0.00 90 1014.7
20220624125529 77 201 0.0 2.0 0.00 0.00 0.00 89 1014.7
20220624125023 76 201 0.0 0.0 0.00 0.00 0.00 89 1014.7
20220624124517 76 201 0.0 0.0 0.00 0.00 0.00 89 1014.6
20220624124011 76 201 0.0 0.0 0.00 0.00 0.00 89 1014.6
20220624123505 75 201 0.0 0.0 0.00 0.00 0.00 88 1014.6
20220624123003 75 201 0.0 0.0 0.00 0.00 0.00 88 1014.5
20220624122502 75 201 0.0 0.0 0.00 0.00 0.00 87 1014.5
20220624122001 74 201 0.0 0.0 0.00 0.00 0.00 87 1014.4
20220624121504 74 201 0.0 0.0 0.00 0.00 0.00 87 1014.4
20220624121001 74 201 0.0 0.0 0.00 0.00 0.00 87 1014.4
20220624120501 74 201 0.0 0.0 0.00 0.00 0.00 86 1014.4
20220624120001 74 201 0.0 0.0 0.00 0.00 0.00 86 1014.3
20220624115500 75 201 0.0 0.0 0.00 0.00 0.00 86 1014.3
20220624115000 75 201 0.0 0.0 0.00 0.00 0.00 86 1014.2
20220624114501 75 201 0.0 0.0 0.00 0.00 0.00 86 1014.1
20220624114002 75 201 0.0 0.0 0.00 0.00 0.00 86 1014.1
20220624113501 75 201 0.0 0.0 0.00 0.00 0.00 86 1014.0
20220624113000 75 201 0.0 0.0 0.00 0.00 0.00 86 1014.0
20220624112500 75 201 0.0 0.0 0.00 0.00 0.00 86 1014.0
20220624112001 75 201 0.0 0.0 0.00 0.00 0.00 85 1013.9
20220624111501 75 201 0.0 0.0 0.00 0.00 0.00 85 1013.9
20220624111000 75 201 0.0 0.0 0.00 0.00 0.00 85 1013.8
20220624110500 75 201 0.0 1.0 0.00 0.00 0.00 85 1013.9
20220624110000 75 201 1.0 2.0 0.00 0.00 0.00 85 1013.9
20220624105501 76 201 1.0 2.0 0.00 0.00 0.00 85 1013.7
20220624105001 76 201 1.0 2.0 0.00 0.00 0.00 85 1013.8
20220624104500 76 201 1.0 2.0 0.00 0.00 0.00 85 1013.8
20220624104001 77 201 0.0 2.0 0.00 0.00 0.00 85 1013.8
20220624103500 77 201 0.0 2.0 0.00 0.00 0.00 85 1013.8
20220624103000 78 201 0.0 0.0 0.00 0.00 0.00 86 1013.8
20220624102501 78 201 0.0 0.0 0.00 0.00 0.00 86 1013.7
20220624102000 78 201 0.0 1.0 0.00 0.00 0.00 86 1013.6
20220624101501 78 201 0.0 1.0 0.00 0.00 0.00 86 1013.6
20220624101001 78 201 1.0 3.0 0.00 0.00 0.00 86 1013.6
20220624100459 78 201 1.0 4.0 0.00 0.00 0.00 87 1013.5
20220624095959 78 201 1.0 4.0 0.00 0.00 0.00 87 1013.5
20220624095458 78 201 1.0 4.0 0.00 0.00 0.00 87 1013.5
20220624094959 78 201 1.0 4.0 0.00 0.00 0.00 87 1013.4
20220624094458 78 201 1.0 4.0 0.00 0.00 0.00 87 1013.4
20220624093958 78 201 2.0 4.0 0.00 0.00 0.00 87 1013.4
20220624093459 78 201 2.0 5.0 0.00 0.00 0.00 87 1013.4
20220624092958 78 200 3.0 5.0 0.00 0.00 0.00 87 1013.4
20220624092459 78 188 3.0 6.0 0.00 0.00 0.00 87 1013.3
20220624091954 78 184 3.0 6.0 0.00 0.00 0.00 87 1013.2
20220624091454 78 182 3.0 5.0 0.00 0.00 0.00 87 1013.2
20220624090956 78 186 3.0 6.0 0.00 0.00 0.00 87 1013.2
20220624090456 78 179 3.0 6.0 0.00 0.00 0.00 87 1013.2
20220624085954 78 188 4.0 7.0 0.00 0.00 0.00 88 1013.1
20220624085455 78 186 4.0 7.0 0.00 0.00 0.00 88 1013.2
20220624084955 78 227 3.0 8.0 0.00 0.00 0.00 87 1013.1
20220624084454 77 213 3.0 8.0 0.00 0.00 0.00 87 1013.1
20220624083955 77 196 3.0 6.0 0.00 0.00 0.00 87 1013.2
20220624083455 77 185 3.0 6.0 0.00 0.00 0.00 87 1013.2
20220624082955 77 183 2.0 5.0 0.00 0.00 0.00 87 1013.3
20220624082456 77 183 2.0 4.0 0.00 0.00 0.00 87 1013.4
20220624081955 76 183 2.0 4.0 0.00 0.00 0.00 87 1013.3
20220624081454 76 182 1.0 4.0 0.00 0.00 0.00 86 1013.3
20220624080954 76 182 1.0 4.0 0.00 0.00 0.00 85 1013.4
20220624080454 76 181 0.0 2.0 0.00 0.00 0.00 85 1013.4
20220624075955 76 181 0.0 1.0 0.00 0.00 0.00 85 1013.6
20220624075453 76 181 0.0 0.0 0.00 0.00 0.00 85 1013.7
20220624074948 77 181 0.0 0.0 0.00 0.00 0.00 85 1013.7
20220624074441 77 181 0.0 0.0 0.00 0.00 0.00 85 1013.8
20220624073936 77 181 1.0 2.0 0.00 0.00 0.00 85 1013.8
20220624073430 77 181 1.0 3.0 0.00 0.00 0.00 85 1013.7
20220624072929 77 181 1.0 3.0 0.00 0.00 0.00 85 1013.6
20220624072429 77 181 1.0 4.0 0.00 0.00 0.00 85 1013.6
20220624071928 77 181 1.0 4.0 0.00 0.00 0.00 85 1013.7
20220624071429 77 180 0.0 0.0 0.00 0.00 0.00 85 1013.7
20220624070929 77 180 0.0 0.0 0.00 0.00 0.00 85 1013.7
20220624070430 77 180 0.0 0.0 0.00 0.00 0.00 85 1013.8
20220624065929 77 180 0.0 0.0 0.00 0.00 0.00 85 1013.9
20220624065429 77 180 0.0 0.0 0.00 0.00 0.00 85 1013.9
20220624064929 77 180 0.0 0.0 0.00 0.00 0.00 85 1014.0
20220624064429 77 180 0.0 0.0 0.00 0.00 0.00 84 1014.0
20220624063931 77 180 0.0 0.0 0.00 0.00 0.00 84 1014.0
20220624063428 77 180 0.0 0.0 0.00 0.00 0.00 84 1014.1
20220624062930 77 180 0.0 0.0 0.00 0.00 0.00 84 1014.1
20220624062429 77 180 0.0 0.0 0.00 0.00 0.00 84 1014.1
20220624061930 77 180 0.0 0.0 0.00 0.00 0.00 83 1014.1
20220624061428 77 180 0.0 0.0 0.00 0.00 0.00 83 1014.1
20220624060921 77 180 0.0 0.0 0.00 0.00 0.00 83 1014.1
20220624060415 77 180 0.0 0.0 0.00 0.00 0.00 83 1014.1
20220624055916 78 180 0.0 0.0 0.00 0.00 0.00 83 1014.1
20220624055416 78 180 0.0 0.0 0.00 0.00 0.00 82 1014.1
20220624054916 78 180 0.0 0.0 0.00 0.00 0.00 82 1014.1
20220624054415 78 180 0.0 0.0 0.00 0.00 0.00 82 1014.0
20220624053914 78 180 0.0 0.0 0.00 0.00 0.00 81 1014.0
20220624053415 78 180 0.0 0.0 0.00 0.00 0.00 82 1014.0
20220624052912 78 180 0.0 2.0 0.00 0.00 0.00 81 1014.0
20220624052411 79 180 1.0 2.0 0.00 0.00 0.00 82 1014.0
20220624051908 79 180 1.0 3.0 0.00 0.00 0.00 81 1014.1
20220624051408 79 180 1.0 3.0 0.00 0.00 0.00 81 1014.1
20220624050908 79 180 1.0 3.0 0.00 0.00 0.00 81 1014.1
20220624050408 79 180 1.0 3.0 0.00 0.00 0.00 81 1014.0
20220624045906 79 180 1.0 3.0 0.00 0.00 0.00 81 1014.0
20220624045406 79 180 1.0 3.0 0.00 0.00 0.00 81 1014.0
20220624044906 80 180 1.0 3.0 0.00 0.00 0.00 81 1014.0
20220624044407 80 180 2.0 3.0 0.00 0.00 0.00 81 1014.0
20220624043906 80 182 1.0 3.0 0.00 0.00 0.00 81 1014.0
20220624043406 80 182 1.0 3.0 0.00 0.00 0.00 81 1014.1
20220624042905 80 182 2.0 5.0 0.00 0.00 0.00 81 1014.1
20220624042405 80 184 3.0 5.0 0.00 0.00 0.00 81 1014.1
20220624041905 80 183 3.0 6.0 0.00 0.00 0.00 81 1014.1
20220624041404 80 180 2.0 6.0 0.00 0.00 0.00 81 1014.0
20220624040901 80 180 1.0 5.0 0.00 0.00 0.00 80 1014.1
20220624040402 80 174 2.0 6.0 0.00 0.00 0.00 80 1014.0
20220624035903 80 173 1.0 6.0 0.00 0.00 0.00 79 1013.9
20220624035403 80 167 0.0 4.0 0.00 0.00 0.00 79 1013.9
20220624034902 80 167 0.0 0.0 0.00 0.00 0.00 78 1013.9
20220624034402 81 167 0.0 1.0 0.00 0.00 0.00 78 1013.8
20220624033902 81 167 1.0 3.0 0.00 0.00 0.00 78 1013.7
20220624033402 81 167 1.0 5.0 0.00 0.00 0.00 78 1013.7
20220624032902 81 167 2.0 5.0 0.00 0.00 0.00 78 1013.7
20220624032401 81 167 2.0 5.0 0.00 0.00 0.00 78 1013.6
20220624031900 81 166 2.0 6.0 0.00 0.00 0.00 78 1013.7
20220624031401 81 171 2.0 6.0 0.00 0.00 0.00 78 1013.6
20220624030900 81 166 2.0 5.0 0.00 0.00 0.00 77 1013.6
20220624030405 82 164 2.0 6.0 0.00 0.00 0.00 77 1013.7
20220624025900 82 163 2.0 6.0 0.00 0.00 0.00 76 1013.7
20220624025401 82 155 2.0 6.0 0.00 0.00 0.00 76 1013.7
20220624024902 82 155 3.0 6.0 0.00 0.00 0.00 76 1013.6
20220624024401 82 153 3.0 6.0 0.00 0.00 0.00 75 1013.6
20220624023901 83 159 3.0 6.0 0.00 0.00 0.00 75 1013.7
20220624023401 83 160 3.0 6.0 0.00 0.00 0.00 75 1013.6
20220624022901 83 155 3.0 6.0 0.00 0.00 0.00 74 1013.6
20220624022402 83 155 3.0 6.0 0.00 0.00 0.00 74 1013.6
20220624021901 83 156 3.0 6.0 0.00 0.00 0.00 73 1013.5
20220624021401 84 152 3.0 6.0 0.00 0.00 0.00 73 1013.6
20220624020901 84 150 3.0 6.0 0.00 0.00 0.00 72 1013.4
20220624020402 84 146 4.0 7.0 0.00 0.00 0.00 72 1013.4
20220624015900 85 155 4.0 8.0 0.00 0.00 0.00 72 1013.4
20220624015401 85 165 4.0 8.0 0.00 0.00 0.00 71 1013.3
20220624014901 85 173 4.0 7.0 0.00 0.00 0.00 71 1013.3
20220624014357 85 165 5.0 9.0 0.00 0.00 0.00 71 1013.2
20220624013852 86 165 5.0 10.0 0.00 0.00 0.00 70 1013.2
20220624013345 86 162 5.0 10.0 0.00 0.00 0.00 69 1013.2
20220624012839 86 153 5.0 11.0 0.00 0.00 0.00 69 1013.1
20220624012333 87 152 5.0 11.0 0.00 0.00 0.00 68 1013.2
20220624011834 87 198 5.0 9.0 0.00 0.00 0.00 67 1013.1
20220624011334 87 161 5.0 10.0 0.00 0.00 0.00 67 1013.1
20220624010834 87 156 4.0 10.0 0.00 0.00 0.00 66 1013.1
20220624010335 88 167 5.0 10.0 0.00 0.00 0.00 65 1013.0
20220624005834 88 183 5.0 10.0 0.00 0.00 0.00 65 1013.0
20220624005332 89 168 5.0 12.0 0.00 0.00 0.00 64 1013.1
20220624004830 89 166 6.0 12.0 0.00 0.00 0.00 62 1013.0
20220624004330 89 171 7.0 13.0 0.00 0.00 0.00 62 1013.1
20220624003830 89 150 6.0 13.0 0.00 0.00 0.00 61 1013.1
20220624003330 90 181 6.0 12.0 0.00 0.00 0.00 60 1013.1
20220624002830 90 156 6.0 10.0 0.00 0.00 0.00 59 1013.0
20220624002330 91 163 6.0 11.0 0.00 0.00 0.00 58 1013.0
20220624001830 91 180 6.0 11.0 0.00 0.00 0.00 56 1013.0
20220624001330 91 178 6.0 11.0 0.00 0.00 0.00 56 1012.9
20220624000830 92 210 6.0 14.0 0.00 0.00 0.00 56 1012.9
20220624000329 92 164 6.0 14.0 0.00 0.00 0.00 56 1012.9
20220623235829 92 160 6.0 12.0 0.00 0.00 0.00 54 1012.9
20220623235330 92 198 7.0 12.0 0.00 0.00 0.00 54 1012.9
20220623234830 93 154 7.0 15.0 0.00 0.00 0.00 54 1012.9
20220623234330 93 166 8.0 15.0 0.00 0.00 0.00 53 1012.9
20220623233829 93 151 7.0 11.0 0.00 0.00 0.00 54 1012.9
20220623233329 93 155 7.0 15.0 0.00 0.00 0.00 54 1013.0
20220623232830 94 159 7.0 15.0 0.00 0.00 0.00 53 1012.9
20220623232330 94 169 7.0 14.0 0.00 0.00 0.00 52 1013.0
20220623231830 94 196 6.0 13.0 0.00 0.00 0.00 52 1012.9
20220623231330 94 173 7.0 16.0 0.00 0.00 0.00 53 1012.9